| time (UTC) | temp F | wind direction | speed MPH | gust MPH | rain 1hr in | rain 24hr in | rain mn in | humidity % | barometer mb |
| 20260504050414 | 92 | 140 | 7.0 | 14.0 | 0.00 | 0.00 | 0.00 | 72 | 1009.0 |
| 20260504045913 | 92 | 179 | 7.0 | 13.0 | 0.00 | 0.00 | 0.00 | 73 | 1009.0 |
| 20260504045413 | 91 | 150 | 7.0 | 13.0 | 0.00 | 0.00 | 0.00 | 73 | 1009.0 |
| 20260504044914 | 91 | 146 | 7.0 | 11.0 | 0.00 | 0.00 | 0.00 | 73 | 1009.0 |
| 20260504044413 | 90 | 221 | 0.0 | 10.0 | 0.00 | 0.00 | 0.00 | 75 | 1009.0 |
| 20260504043913 | 89 | 138 | 6.0 | 14.0 | 0.00 | 0.00 | 0.00 | 74 | 1009.0 |
| 20260504043413 | 89 | 153 | 6.0 | 14.0 | 0.00 | 0.00 | 0.00 | 74 | 1009.0 |
| 20260504042913 | 89 | 226 | 3.0 | 11.0 | 0.00 | 0.00 | 0.00 | 74 | 1009.0 |
| 20260504042413 | 88 | 131 | 6.0 | 12.0 | 0.00 | 0.00 | 0.00 | 74 | 1009.0 |
| 20260504041913 | 88 | 143 | 3.0 | 16.0 | 0.00 | 0.00 | 0.00 | 75 | 1009.0 |
| 20260504041413 | 88 | 144 | 12.0 | 16.0 | 0.00 | 0.00 | 0.00 | 75 | 1009.0 |
| 20260504040913 | 88 | 144 | 9.0 | 16.0 | 0.00 | 0.00 | 0.00 | 76 | 1009.0 |
| 20260504040413 | 88 | 109 | 9.0 | 14.0 | 0.00 | 0.00 | 0.00 | 76 | 1009.0 |
| 20260504035913 | 88 | 116 | 12.0 | 14.0 | 0.00 | 0.00 | 0.00 | 76 | 1009.0 |
| 20260504035413 | 88 | 122 | 9.0 | 17.0 | 0.00 | 0.00 | 0.00 | 76 | 1009.0 |
| 20260504034913 | 88 | 115 | 13.0 | 17.0 | 0.00 | 0.00 | 0.00 | 75 | 1009.0 |
| 20260504034413 | 89 | 146 | 6.0 | 11.0 | 0.00 | 0.00 | 0.00 | 77 | 1009.0 |
| 20260504033913 | 89 | 129 | 5.0 | 9.0 | 0.00 | 0.00 | 0.00 | 77 | 1009.0 |
| 20260504033413 | 89 | 111 | 2.0 | 8.0 | 0.00 | 0.00 | 0.00 | 77 | 1009.0 |
| 20260504032913 | 89 | 117 | 1.0 | 2.0 | 0.00 | 0.00 | 0.00 | 76 | 1009.0 |
| 20260504032413 | 89 | 118 | 0.0 | 1.0 | 0.00 | 0.00 | 0.00 | 76 | 1009.0 |
| 20260504031913 | 89 | 121 | 0.0 | 1.0 | 0.00 | 0.00 | 0.00 | 76 | 1009.0 |
| 20260504031413 | 88 | 163 | 0.0 | 4.0 | 0.00 | 0.00 | 0.00 | 77 | 1009.0 |
| 20260504030915 | 88 | 114 | 0.0 | 6.0 | 0.00 | 0.00 | 0.00 | 77 | 1009.0 |
| 20260504030413 | 88 | 113 | 0.0 | 6.0 | 0.00 | 0.00 | 0.00 | 77 | 1009.0 |
| 20260504025913 | 87 | 154 | 0.0 | 4.0 | 0.00 | 0.00 | 0.00 | 78 | 1008.0 |
| 20260504025413 | 87 | 139 | 0.0 | 6.0 | 0.00 | 0.00 | 0.00 | 78 | 1008.0 |
| 20260504024913 | 87 | 163 | 0.0 | 9.0 | 0.00 | 0.00 | 0.00 | 78 | 1008.0 |
| 20260504024413 | 86 | 105 | 0.0 | 9.0 | 0.00 | 0.00 | 0.00 | 78 | 1008.0 |
| 20260504023913 | 86 | 103 | 4.0 | 9.0 | 0.00 | 0.00 | 0.00 | 79 | 1008.0 |
| 20260504023413 | 86 | 146 | 0.0 | 9.0 | 0.00 | 0.00 | 0.00 | 80 | 1008.0 |
| 20260504022913 | 86 | 103 | 0.0 | 8.0 | 0.00 | 0.00 | 0.00 | 80 | 1008.0 |
| 20260504022414 | 85 | 116 | 6.0 | 8.0 | 0.00 | 0.00 | 0.00 | 81 | 1008.0 |
| 20260504021913 | 85 | 129 | 0.0 | 6.0 | 0.00 | 0.00 | 0.00 | 81 | 1008.0 |
| 20260504021413 | 85 | 106 | 6.0 | 7.0 | 0.00 | 0.00 | 0.00 | 81 | 1008.0 |
| 20260504020913 | 85 | 124 | 0.0 | 9.0 | 0.00 | 0.00 | 0.00 | 81 | 1008.0 |
| 20260504020413 | 85 | 138 | 0.0 | 9.0 | 0.00 | 0.00 | 0.00 | 81 | 1008.0 |
| 20260504015914 | 84 | 107 | 5.0 | 10.0 | 0.00 | 0.00 | 0.00 | 81 | 1008.0 |
| 20260504015413 | 84 | 113 | 4.0 | 14.0 | 0.00 | 0.00 | 0.00 | 81 | 1008.0 |
| 20260504014913 | 84 | 130 | 1.0 | 14.0 | 0.00 | 0.00 | 0.00 | 82 | 1007.0 |
| 20260504014413 | 84 | 85 | 1.0 | 11.0 | 0.00 | 0.00 | 0.00 | 81 | 1007.0 |
| 20260504013913 | 84 | 119 | 5.0 | 10.0 | 0.00 | 0.00 | 0.00 | 80 | 1007.0 |
| 20260504013413 | 84 | 78 | 7.0 | 13.0 | 0.00 | 0.00 | 0.00 | 80 | 1007.0 |
| 20260504012913 | 84 | 89 | 9.0 | 13.0 | 0.00 | 0.00 | 0.00 | 80 | 1007.0 |
| 20260504012413 | 84 | 77 | 6.0 | 14.0 | 0.00 | 0.00 | 0.00 | 80 | 1007.0 |
| 20260504011913 | 84 | 72 | 5.0 | 14.0 | 0.00 | 0.00 | 0.00 | 81 | 1007.0 |
| 20260504011413 | 84 | 103 | 3.0 | 14.0 | 0.00 | 0.00 | 0.00 | 81 | 1007.0 |
| 20260504010914 | 84 | 115 | 9.0 | 15.0 | 0.00 | 0.00 | 0.00 | 81 | 1007.0 |
| 20260504010415 | 84 | 99 | 7.0 | 15.0 | 0.00 | 0.00 | 0.00 | 81 | 1007.0 |
| 20260504005913 | 84 | 87 | 11.0 | 12.0 | 0.00 | 0.00 | 0.00 | 81 | 1007.0 |
| 20260504005413 | 84 | 108 | 3.0 | 12.0 | 0.00 | 0.00 | 0.00 | 80 | 1007.0 |
| 20260504004914 | 84 | 99 | 5.0 | 12.0 | 0.00 | 0.00 | 0.00 | 80 | 1007.0 |
| 20260504004413 | 84 | 57 | 0.0 | 10.0 | 0.00 | 0.00 | 0.00 | 80 | 1007.0 |
| 20260504003913 | 84 | 89 | 3.0 | 6.0 | 0.00 | 0.00 | 0.00 | 80 | 1007.0 |
| 20260504003413 | 84 | 79 | 0.0 | 6.0 | 0.00 | 0.00 | 0.00 | 80 | 1007.0 |
| 20260504002913 | 84 | 91 | 0.0 | 7.0 | 0.00 | 0.00 | 0.00 | 80 | 1007.0 |
| 20260504002413 | 84 | 68 | 4.0 | 9.0 | 0.00 | 0.00 | 0.00 | 80 | 1007.0 |
| 20260504001913 | 84 | 75 | 3.0 | 11.0 | 0.00 | 0.00 | 0.00 | 80 | 1007.0 |
| 20260504001413 | 84 | 96 | 7.0 | 11.0 | 0.00 | 0.00 | 0.00 | 80 | 1007.0 |
| 20260504000913 | 84 | 107 | 3.0 | 12.0 | 0.00 | 0.00 | 0.00 | 80 | 1007.0 |
| 20260504000416 | 84 | 96 | 5.0 | 13.0 | 0.00 | 0.00 | 0.00 | 81 | 1007.0 |
| 20260503235914 | 84 | 107 | 7.0 | 13.0 | 0.00 | 0.00 | 0.00 | 81 | 1007.0 |
| 20260503235413 | 84 | 124 | 4.0 | 12.0 | 0.00 | 0.00 | 0.00 | 81 | 1007.0 |
| 20260503234914 | 84 | 83 | 5.0 | 12.0 | 0.00 | 0.00 | 0.00 | 82 | 1007.0 |
| 20260503234413 | 84 | 71 | 0.0 | 10.0 | 0.00 | 0.00 | 0.00 | 82 | 1007.0 |
| 20260503233913 | 83 | 79 | 0.0 | 10.0 | 0.00 | 0.00 | 0.00 | 83 | 1007.0 |
| 20260503233413 | 83 | 94 | 0.0 | 9.0 | 0.00 | 0.00 | 0.00 | 83 | 1007.0 |
| 20260503232914 | 83 | 79 | 5.0 | 8.0 | 0.00 | 0.00 | 0.00 | 82 | 1007.0 |
| 20260503232413 | 83 | 82 | 6.0 | 8.0 | 0.00 | 0.00 | 0.00 | 82 | 1007.0 |
| 20260503231913 | 83 | 91 | 3.0 | 9.0 | 0.00 | 0.00 | 0.00 | 82 | 1007.0 |
| 20260503231413 | 83 | 84 | 0.0 | 9.0 | 0.00 | 0.00 | 0.00 | 82 | 1007.0 |
| 20260503230913 | 83 | 86 | 0.0 | 15.0 | 0.00 | 0.00 | 0.00 | 83 | 1007.0 |
| 20260503230413 | 84 | 47 | 2.0 | 15.0 | 0.00 | 0.00 | 0.00 | 83 | 1007.0 |
| 20260503225914 | 85 | 99 | 2.0 | 15.0 | 0.00 | 0.00 | 0.00 | 81 | 1007.0 |
| 20260503225413 | 86 | 51 | 5.0 | 15.0 | 0.00 | 0.00 | 0.00 | 79 | 1007.0 |
| 20260503224913 | 87 | 70 | 0.0 | 10.0 | 0.00 | 0.00 | 0.00 | 75 | 1007.0 |
| 20260503224414 | 87 | 122 | 0.0 | 0.0 | 0.00 | 0.00 | 0.00 | 72 | 1006.0 |
| 20260503223913 | 87 | 122 | 0.0 | 0.0 | 0.00 | 0.00 | 0.00 | 72 | 1006.0 |
| 20260503223414 | 87 | 122 | 0.0 | 0.0 | 0.00 | 0.00 | 0.00 | 72 | 1006.0 |
| 20260503222914 | 87 | 122 | 0.0 | 0.0 | 0.00 | 0.00 | 0.00 | 73 | 1006.0 |
| 20260503222414 | 87 | 122 | 0.0 | 0.0 | 0.00 | 0.00 | 0.00 | 72 | 1006.0 |
| 20260503221914 | 87 | 122 | 0.0 | 0.0 | 0.00 | 0.00 | 0.00 | 72 | 1006.0 |
| 20260503221414 | 87 | 101 | 0.0 | 1.0 | 0.00 | 0.00 | 0.00 | 72 | 1006.0 |
| 20260503220914 | 87 | 102 | 0.0 | 1.0 | 0.00 | 0.00 | 0.00 | 72 | 1006.0 |
| 20260503220413 | 87 | 97 | 0.0 | 1.0 | 0.00 | 0.00 | 0.00 | 72 | 1006.0 |
| 20260503215913 | 87 | 265 | 0.0 | 0.0 | 0.00 | 0.00 | 0.00 | 73 | 1006.0 |
| 20260503215413 | 87 | 266 | 0.0 | 0.0 | 0.00 | 0.00 | 0.00 | 73 | 1006.0 |
| 20260503214913 | 87 | 266 | 0.0 | 0.0 | 0.00 | 0.00 | 0.00 | 73 | 1006.0 |
| 20260503214413 | 87 | 266 | 0.0 | 0.0 | 0.00 | 0.00 | 0.00 | 73 | 1006.0 |
| 20260503213913 | 87 | 156 | 0.0 | 0.0 | 0.00 | 0.00 | 0.00 | 73 | 1006.0 |
| 20260503213413 | 87 | 156 | 0.0 | 0.0 | 0.00 | 0.00 | 0.00 | 72 | 1006.0 |
| 20260503212913 | 87 | 153 | 0.0 | 0.0 | 0.00 | 0.00 | 0.00 | 72 | 1006.0 |
| 20260503212413 | 87 | 286 | 0.0 | 0.0 | 0.00 | 0.00 | 0.00 | 71 | 1006.0 |
| 20260503211914 | 87 | 286 | 0.0 | 0.0 | 0.00 | 0.00 | 0.00 | 71 | 1006.0 |
| 20260503211415 | 87 | 286 | 0.0 | 0.0 | 0.00 | 0.00 | 0.00 | 71 | 1006.0 |
| 20260503210913 | 87 | 286 | 0.0 | 0.0 | 0.00 | 0.00 | 0.00 | 72 | 1006.0 |
| 20260503210414 | 87 | 286 | 0.0 | 0.0 | 0.00 | 0.00 | 0.00 | 72 | 1006.0 |
| 20260503205913 | 87 | 286 | 0.0 | 0.0 | 0.00 | 0.00 | 0.00 | 72 | 1006.0 |
| 20260503205414 | 87 | 286 | 0.0 | 0.0 | 0.00 | 0.00 | 0.00 | 72 | 1006.0 |
| 20260503204913 | 87 | 286 | 0.0 | 1.0 | 0.00 | 0.00 | 0.00 | 72 | 1006.0 |
| 20260503204413 | 87 | 286 | 0.0 | 1.0 | 0.00 | 0.00 | 0.00 | 72 | 1006.0 |
| 20260503203913 | 87 | 271 | 0.0 | 1.0 | 0.00 | 0.00 | 0.00 | 71 | 1006.0 |
| 20260503203413 | 87 | 233 | 0.0 | 0.0 | 0.00 | 0.00 | 0.00 | 71 | 1006.0 |
| 20260503202913 | 87 | 244 | 0.0 | 0.0 | 0.00 | 0.00 | 0.00 | 71 | 1006.0 |
| 20260503202414 | 87 | 272 | 0.0 | 0.0 | 0.00 | 0.00 | 0.00 | 71 | 1006.0 |
| 20260503201913 | 88 | 272 | 0.0 | 0.0 | 0.00 | 0.00 | 0.00 | 71 | 1006.0 |
| 20260503201414 | 88 | 272 | 0.0 | 0.0 | 0.00 | 0.00 | 0.00 | 71 | 1006.0 |
| 20260503200913 | 87 | 279 | 0.0 | 0.0 | 0.00 | 0.00 | 0.00 | 71 | 1007.0 |
| 20260503200413 | 87 | 271 | 0.0 | 0.0 | 0.00 | 0.00 | 0.00 | 71 | 1007.0 |
| 20260503195913 | 88 | 249 | 0.0 | 0.0 | 0.00 | 0.00 | 0.00 | 71 | 1007.0 |
| 20260503195415 | 88 | 249 | 0.0 | 0.0 | 0.00 | 0.00 | 0.00 | 70 | 1007.0 |
| 20260503194913 | 88 | 276 | 0.0 | 0.0 | 0.00 | 0.00 | 0.00 | 71 | 1007.0 |
| 20260503194413 | 88 | 289 | 0.0 | 0.0 | 0.00 | 0.00 | 0.00 | 71 | 1007.0 |
| 20260503193913 | 88 | 33 | 0.0 | 0.0 | 0.00 | 0.00 | 0.00 | 71 | 1007.0 |
| 20260503193413 | 88 | 33 | 0.0 | 0.0 | 0.00 | 0.00 | 0.00 | 71 | 1007.0 |
| 20260503192914 | 88 | 33 | 0.0 | 0.0 | 0.00 | 0.00 | 0.00 | 71 | 1007.0 |
| 20260503192414 | 88 | 304 | 0.0 | 0.0 | 0.00 | 0.00 | 0.00 | 71 | 1007.0 |
| 20260503191914 | 88 | 304 | 0.0 | 1.0 | 0.00 | 0.00 | 0.00 | 71 | 1007.0 |
| 20260503191413 | 88 | 304 | 0.0 | 3.0 | 0.00 | 0.00 | 0.00 | 70 | 1007.0 |
| 20260503190913 | 88 | 308 | 1.0 | 3.0 | 0.00 | 0.00 | 0.00 | 71 | 1007.0 |
| 20260503190413 | 88 | 330 | 0.0 | 6.0 | 0.00 | 0.00 | 0.00 | 71 | 1007.0 |
| 20260503185913 | 88 | 308 | 0.0 | 7.0 | 0.00 | 0.00 | 0.00 | 71 | 1007.0 |
| 20260503185413 | 88 | 348 | 0.0 | 7.0 | 0.00 | 0.00 | 0.00 | 72 | 1008.0 |
| 20260503184914 | 88 | 311 | 2.0 | 7.0 | 0.00 | 0.00 | 0.00 | 72 | 1008.0 |
| 20260503184413 | 88 | 276 | 4.0 | 7.0 | 0.00 | 0.00 | 0.00 | 71 | 1008.0 |
| 20260503183913 | 88 | 323 | 0.0 | 7.0 | 0.00 | 0.00 | 0.00 | 71 | 1008.0 |
| 20260503183413 | 88 | 335 | 3.0 | 7.0 | 0.00 | 0.00 | 0.00 | 71 | 1008.0 |
| 20260503182914 | 88 | 313 | 3.0 | 5.0 | 0.00 | 0.00 | 0.00 | 70 | 1008.0 |
| 20260503182413 | 89 | 266 | 0.0 | 3.0 | 0.00 | 0.00 | 0.00 | 70 | 1007.0 |
| 20260503181914 | 89 | 349 | 0.0 | 2.0 | 0.00 | 0.00 | 0.00 | 70 | 1008.0 |
| 20260503181414 | 89 | 309 | 0.0 | 0.0 | 0.00 | 0.00 | 0.00 | 70 | 1007.0 |
| 20260503180913 | 88 | 126 | 0.0 | 0.0 | 0.00 | 0.00 | 0.00 | 70 | 1007.0 |
| 20260503180413 | 89 | 356 | 0.0 | 1.0 | 0.00 | 0.00 | 0.00 | 70 | 1007.0 |
| 20260503175913 | 89 | 11 | 0.0 | 3.0 | 0.00 | 0.00 | 0.00 | 70 | 1007.0 |
| 20260503175414 | 89 | 319 | 0.0 | 3.0 | 0.00 | 0.00 | 0.00 | 70 | 1008.0 |
| 20260503174913 | 89 | 330 | 0.0 | 3.0 | 0.00 | 0.00 | 0.00 | 70 | 1008.0 |
| 20260503174413 | 89 | 297 | 0.0 | 8.0 | 0.00 | 0.00 | 0.00 | 70 | 1008.0 |
| 20260503173913 | 89 | 307 | 0.0 | 9.0 | 0.00 | 0.00 | 0.00 | 70 | 1008.0 |
| 20260503173413 | 89 | 311 | 7.0 | 9.0 | 0.00 | 0.00 | 0.00 | 70 | 1008.0 |
| 20260503172914 | 89 | 307 | 4.0 | 6.0 | 0.00 | 0.00 | 0.00 | 71 | 1008.0 |
| 20260503172413 | 89 | 281 | 2.0 | 4.0 | 0.00 | 0.00 | 0.00 | 70 | 1007.0 |
| 20260503171914 | 89 | 236 | 0.0 | 4.0 | 0.00 | 0.00 | 0.00 | 70 | 1007.0 |
| 20260503171413 | 89 | 211 | 0.0 | 4.0 | 0.00 | 0.00 | 0.00 | 70 | 1007.0 |
| 20260503170913 | 89 | 181 | 1.0 | 2.0 | 0.00 | 0.00 | 0.00 | 70 | 1007.0 |
| 20260503170413 | 89 | 243 | 0.0 | 1.0 | 0.00 | 0.00 | 0.00 | 70 | 1007.0 |
| 20260503150913 | 91 | 141 | 3.0 | 8.0 | 0.00 | 0.00 | 0.00 | 66 | 1005.0 |
| 20260503150413 | 91 | 91 | 2.0 | 9.0 | 0.00 | 0.00 | 0.00 | 66 | 1005.0 |
| 20260503131413 | 93 | 146 | 4.0 | 10.0 | 0.00 | 0.00 | 0.00 | 70 | 1004.0 |
| 20260503130914 | 93 | 82 | 6.0 | 10.0 | 0.00 | 0.00 | 0.00 | 70 | 1004.0 |
| 20260503130414 | 93 | 159 | 7.0 | 8.0 | 0.00 | 0.00 | 0.00 | 68 | 1004.0 |
| 20260503110413 | 96 | 158 | 0.0 | 9.0 | 0.00 | 0.00 | 0.00 | 64 | 1003.0 |
| 20260503090417 | 100 | 78 | 5.0 | 14.0 | 0.00 | 0.00 | 0.00 | 60 | 1003.0 |
| 20260503081413 | 103 | 6 | 10.0 | 17.0 | 0.00 | 0.00 | 0.00 | 58 | 1003.0 |
| 20260503080913 | 104 | 40 | 0.0 | 6.0 | 0.00 | 0.00 | 0.00 | 55 | 1004.0 |
| 20260503080413 | 104 | 293 | 2.0 | 6.0 | 0.00 | 0.00 | 0.00 | 52 | 1004.0 |